This is the latest recevied weather packets stored in our database for station/object VK3BYD-3. If no packets are shown the sender has not sent any weather packets the latest 10 day(s).
| Time | Temp. | Humidity | Pressure | Rain* | Wind** | Luminosity | Snow |
|---|---|---|---|---|---|---|---|
| 1777492587 | 8.33° C | 98% | 1028.1 hPa | 0 mm | - | - | - |
| 1777491688 | 7.22° C | 96% | 1028 hPa | 0 mm | - | - | - |
| 1777490786 | 6.67° C | 95% | 1027.9 hPa | 0 mm | - | - | - |
| 1777489883 | 7.22° C | 95% | 1027.7 hPa | 0 mm | - | - | - |
| 1777488981 | 7.78° C | 94% | 1027.6 hPa | 0 mm | - | - | - |
| 1777488079 | 8.89° C | 96% | 1027.6 hPa | 0 mm | - | - | - |
| 1777487175 | 9.44° C | 97% | 1027.5 hPa | 0 mm | - | - | - |
| 1777486274 | 8.89° C | 97% | 1027.5 hPa | 0 mm | - | - | - |
| 1777485371 | 7.78° C | 97% | 1027.5 hPa | 0 mm | - | - | - |
| 1777484471 | 6.67° C | 96% | 1027.5 hPa | 0 mm | - | - | - |
| 1777483571 | 6.67° C | 96% | 1027.4 hPa | 0 mm | - | - | - |
| 1777482669 | 6.67° C | 95% | 1027.5 hPa | 0 mm | - | - | - |
| 1777481767 | 6.67° C | 95% | 1027.6 hPa | 0 mm | - | - | - |
| 1777480868 | 6.67° C | 95% | 1027.7 hPa | 0 mm | - | - | - |
| 1777479966 | 7.22° C | 95% | 1027.8 hPa | 0 mm | - | - | - |
| 1777479066 | 7.22° C | 94% | 1027.8 hPa | 0 mm | - | - | - |
| 1777478165 | 7.22° C | 94% | 1027.8 hPa | 0 mm | - | - | - |
| 1777477265 | 7.78° C | 93% | 1027.8 hPa | 0 mm | - | - | - |
| 1777476366 | 7.78° C | 94% | 1027.8 hPa | 0 mm | - | - | - |
| 1777475464 | 7.78° C | 94% | 1027.8 hPa | 0 mm | - | - | - |
| 1777474563 | 7.78° C | 94% | 1027.8 hPa | 0 mm | - | - | - |
| 1777473661 | 7.78° C | 93% | 1027.8 hPa | 0 mm | - | - | - |
| 1777472761 | 8.33° C | 92% | 1027.7 hPa | 0 mm | - | - | - |
| 1777471862 | 8.33° C | 92% | 1027.7 hPa | 0 mm | - | - | - |
| 1777470959 | 8.89° C | 93% | 1027.7 hPa | 0 mm | - | - | - |
* Rain latest hour (hover to see other rain measurements)
** Current wind speed in m/s (hover to see current wind gust speed)